Weather History for Wheeler AAF, HI

Change the Weather History Date:

Saturday, August 31, 2013

  Actual Average Record
Temperature  
Mean Temperature 75 °F -  
Max Temperature 82 °F 81 °F 86 °F (2004)
Min Temperature 68 °F 68 °F 64 °F (2010)
Cooling Degree Days 10    
Growing Degree Days 25 (Base 50)    
Moisture  
Dew Point 65 °F    
Average Humidity 69    
Maximum Humidity 89    
Minimum Humidity 51    
Precipitation  
Precipitation 0.00 in - - ()
Sea Level Pressure  
Sea Level Pressure 30.04 in    
Wind  
Wind Speed 7 mph (NE)    
Max Wind Speed 15 mph    
Max Gust Speed 22 mph    
Visibility 10 miles    
Events Rain    
Averages and records for this station are not official NWS values.
T = Trace of Precipitation, MM = Missing Value Source: NWS Daily Summary

Daily Weather History Graph

Daily Weather History Graph

Search for Another Location

Airport:

Trip Planner

Search our weather history database for the weather conditions in past years. The results will help you decide how hot, cold, wet, or windy it might be!

Date:

Astronomy

Aug. 31, 2013 Rise Set
Actual Time 6:15 AM HST 6:48 PM HST
Civil Twilight 5:52 AM HST 7:11 PM HST
Nautical Twilight 5:26 AM HST 7:37 PM HST
Astronomical Twilight 4:59 AM HST 8:04 PM HST
Moon 2:14 AM HST (8/31) 3:37 PM HST (8/31)
Length of Visible Light 13h 18m
Length of Day
12h 33m
Waning Crescent, 19% of the Moon is Illuminated
Aug 31
Waning Crescent
Sep 5
New
Sep 12
First Quarter
Sep 19
Full
Sep 26
Last Quarter

Hourly Weather History & Observations

Time (HST) Temp. Heat Index Dew Point Humidity Pressure Visibility Wind Dir Wind Speed Gust Speed Precip Events Conditions
12:58 AM 69.8 °F - 65.1 °F 85% 30.05 in 10.0 mi WNW 3.5 mph - N/A   Clear
1:58 AM 69.8 °F - 65.1 °F 85% 30.04 in 10.0 mi WNW 4.6 mph - N/A   Partly Cloudy
2:58 AM 68.7 °F - 65.3 °F 89% 30.03 in 10.0 mi North 3.5 mph - N/A   Partly Cloudy
3:58 AM 68.7 °F - 65.1 °F 88% 30.03 in 10.0 mi WNW 5.8 mph - N/A   Partly Cloudy
4:58 AM 70.0 °F - 65.3 °F 85% 30.03 in 10.0 mi NW 4.6 mph - N/A   Scattered Clouds
5:58 AM 68.2 °F - 64.0 °F 87% 30.04 in 10.0 mi NW 3.5 mph - N/A   Clear
6:58 AM 68.5 °F - 64.6 °F 87% 30.05 in 10.0 mi West 4.6 mph - N/A   Clear
7:58 AM 75.7 °F - 66.9 °F 74% 30.07 in 10.0 mi NE 6.9 mph - N/A   Clear
8:58 AM 78.6 °F - 66.6 °F 66% 30.08 in 10.0 mi NE 6.9 mph - N/A   Partly Cloudy
9:13 AM 78.8 °F - 66.2 °F 65% 30.08 in 10.0 mi ENE 6.9 mph - N/A   Mostly Cloudy
9:23 AM 78.8 °F - 66.2 °F 65% 30.08 in 10.0 mi NE 9.2 mph - N/A   Scattered Clouds
9:28 AM 78.8 °F - 66.2 °F 65% 30.08 in 10.0 mi NE 10.4 mph - N/A   Mostly Cloudy
9:33 AM 80.6 °F 82.7 °F 66.2 °F 61% 30.08 in 10.0 mi ENE 8.1 mph - N/A   Mostly Cloudy
9:58 AM 81.0 °F 82.9 °F 65.3 °F 59% 30.08 in 10.0 mi ENE 12.7 mph - N/A   Scattered Clouds
10:58 AM 81.0 °F 83.0 °F 66.0 °F 60% 30.08 in 10.0 mi ENE 11.5 mph 19.6 mph N/A   Partly Cloudy
11:58 AM 82.8 °F 84.3 °F 64.4 °F 54% 30.06 in 10.0 mi ENE 15.0 mph 20.7 mph N/A   Clear
12:58 PM 82.9 °F 84.2 °F 63.7 °F 52% 30.04 in 10.0 mi East 12.7 mph 21.9 mph N/A   Clear
1:58 PM 82.8 °F 84.3 °F 64.4 °F 54% 30.02 in 10.0 mi ENE 12.7 mph - N/A   Clear
2:18 PM 82.4 °F 83.9 °F 64.4 °F 54% 30.01 in 10.0 mi ENE 12.7 mph 21.9 mph N/A   Clear
2:28 PM 82.4 °F 83.4 °F 62.6 °F 51% 30.01 in 10.0 mi ENE 13.8 mph 18.4 mph N/A   Clear
2:58 PM 82.0 °F 83.1 °F 63.0 °F 52% 30.00 in 10.0 mi Variable 5.8 mph 17.3 mph N/A   Partly Cloudy
3:58 PM 82.0 °F 83.6 °F 64.2 °F 55% 29.99 in 10.0 mi ENE 10.4 mph - N/A   Partly Cloudy
4:58 PM 80.2 °F 81.8 °F 63.7 °F 57% 29.99 in 10.0 mi ESE 10.4 mph - N/A   Partly Cloudy
5:58 PM 78.4 °F - 65.5 °F 64% 30.00 in 10.0 mi East 10.4 mph - N/A   Scattered Clouds
6:58 PM 76.6 °F - 65.1 °F 67% 30.01 in 10.0 mi NE 10.4 mph - N/A   Scattered Clouds
7:58 PM 73.8 °F - 63.3 °F 70% 30.01 in 10.0 mi Variable 3.5 mph - N/A   Partly Cloudy
8:58 PM 73.2 °F - 64.6 °F 74% 30.03 in 10.0 mi NNW 2.3 mph - N/A   Clear
9:58 PM 74.3 °F - 65.3 °F 73% 30.04 in 10.0 mi Variable 5.8 mph - N/A   Clear
10:58 PM 74.1 °F - 64.8 °F 72% 30.04 in 10.0 mi NE 10.4 mph - N/A   Clear
11:06 PM 73.4 °F - 66.2 °F 78% 30.03 in 10.0 mi NE 12.7 mph - N/A Rain Light Rain
11:15 PM 73.4 °F - 66.2 °F 78% 30.03 in 10.0 mi NNE 6.9 mph - N/A   Partly Cloudy
11:20 PM 73.4 °F - 66.2 °F 78% 30.03 in 10.0 mi NE 10.4 mph - N/A   Light Drizzle
11:58 PM 72.1 °F - 66.9 °F 84% 30.03 in 10.0 mi NE 1.2 mph - 0.00 in   Light Drizzle